Location: Bremen
(53.0793°N, 8.8017°E)
Time: 23:26:19
(UTC+02:00)

Altair - Pass Details

Date: 14 April 2024
Orbit: 1501 x 1682 km, 47.2° (Epoch: 19 May)

Event Time Altitude Azimuth Distance (km) Brightness Sun altitude
Rises 00:26:27 0° 255° (WSW) 4,858 10.2 -26.2°
Reaches altitude 10° 00:29:39 10° 253° (WSW) 3,850 9.6 -26.3°
Maximum altitude 00:39:13 62° 176° (S) 1,740 7.4 -26.7°
Drops below altitude 10° 00:48:25 10° 99° (E) 3,712 9.3 -26.9°
Sets 00:51:27 0° 96° (E) 4,676 9.9 -27.0°
